EW4960 Weather Reports


Display with metric or nautical units.
time (UTC)temp
F
wind
direction
speed
MPH
gust
MPH
rain 1hr
in
rain 24hr
in
rain mn
in
humidity
%
barometer
mb
20240416093015 41 236 0.0 1.0 0.00 0.01 0.00 1 1015.3
20240416091510 40 236 0.0 0.0 0.00 0.01 0.00 1 1015.2
20240416090009 41 236 0.0 1.0 0.00 0.01 0.00 1 1014.9
20240416084502 41 236 0.0 0.0 0.00 0.01 0.00 1 1014.9
20240416083057 41 236 0.0 0.0 0.00 0.01 0.00 1 1014.8
20240416081615 41 236 0.0 0.0 0.00 0.01 0.00 1 1014.8
20240416080113 42 236 0.0 0.0 0.00 0.01 0.00 1 1014.7
20240416074543 42 236 0.0 0.0 0.00 0.01 0.00 1 1014.7
20240416073040 43 236 0.0 0.0 0.00 0.01 0.00 1 1014.6
20240416071535 43 236 0.0 0.0 0.00 0.01 0.00 1 1014.5
20240416070035 43 236 0.0 0.0 0.00 0.01 0.00 1 1014.4
20240416064534 44 236 0.0 0.0 0.00 0.01 0.00 1 1014.4
20240416063022 44 236 0.0 0.0 0.00 0.01 0.00 1 1014.5
20240416061517 44 236 0.0 0.0 0.00 0.01 0.00 1 1014.3
20240416060013 45 236 0.0 0.0 0.00 0.01 0.00 1 1014.5
20240416054509 45 236 0.0 0.0 0.00 0.01 0.00 1 1014.6
20240416053004 46 236 0.0 0.0 0.00 0.01 0.00 1 1014.4
20240416051601 46 236 0.0 0.0 0.00 0.01 0.00 1 1014.4
20240416050055 47 236 0.0 0.0 0.00 0.01 0.00 1 1014.5
20240416044551 47 236 0.0 0.0 0.00 0.01 0.00 3 1014.4
20240416043047 47 236 0.0 0.0 0.00 0.01 0.00 9 1014.4
20240416041542 48 236 0.0 0.0 0.00 0.01 0.00 16 1014.5
20240416040039 48 236 0.0 0.0 0.00 0.01 0.00 21 1014.1
20240416034534 49 236 0.0 0.0 0.00 0.01 0.01 24 1014.1
20240416033051 49 236 0.0 0.0 0.00 0.01 0.01 34 1013.7
20240416031534 50 236 0.0 0.0 0.00 0.01 0.01 41 1014.0
20240416030021 51 236 0.0 0.0 0.00 0.01 0.01 47 1013.6
20240416024517 52 236 0.0 0.0 0.00 0.01 0.01 49 1013.9
20240416023014 52 236 0.0 0.0 0.00 0.01 0.01 51 1013.7
20240416021508 53 236 0.0 0.0 0.00 0.01 0.01 54 1013.7
20240416020003 54 236 0.0 0.0 0.00 0.01 0.01 55 1013.6
20240416014620 55 236 0.0 2.0 0.00 0.02 0.01 56 1013.6
20240416013103 55 236 0.0 5.0 0.00 0.02 0.01 56 1013.3
20240416011551 56 306 0.0 0.0 0.00 0.02 0.01 56 1013.0
20240416010056 56 304 0.0 5.0 0.00 0.02 0.01 57 1012.5
20240416004548 57 291 0.0 5.0 0.00 0.02 0.01 57 1012.2
20240416003052 57 288 0.0 4.0 0.00 0.02 0.01 57 1012.0
20240416001539 59 320 0.0 10.0 0.00 0.02 0.01 55 1011.6
20240416000030 60 284 0.0 7.0 0.00 0.02 0.01 44 1011.3
20240415234525 61 199 1.0 12.0 0.00 0.02 0.01 39 1010.9
20240415233020 62 236 0.0 17.0 0.00 0.02 0.01 37 1010.6
20240415231519 62 223 0.0 2.0 0.00 0.02 0.01 38 1010.4
20240415230012 63 236 0.0 15.0 0.00 0.02 0.01 38 1010.0
20240415224507 64 245 0.0 16.0 0.00 0.04 0.01 37 1009.7
20240415223005 65 290 0.0 7.0 0.00 0.04 0.01 36 1009.4
20240415221600 65 242 0.0 13.0 0.00 0.04 0.01 36 1009.2
20240415220055 65 245 0.0 16.0 0.00 0.04 0.01 38 1009.1
20240415214550 66 254 0.0 14.0 0.00 0.05 0.01 38 1008.7
20240415213044 66 283 0.0 14.0 0.00 0.05 0.01 41 1008.5
20240415211546 66 246 0.0 16.0 0.00 0.05 0.01 39 1008.4
20240415210036 66 275 4.0 21.0 0.00 0.05 0.01 40 1008.3
20240415204544 67 207 2.0 32.0 0.00 0.05 0.01 40 1008.0
20240415203027 68 264 3.0 16.0 0.00 0.05 0.01 40 1007.9
20240415201521 70 293 5.0 20.0 0.00 0.05 0.01 39 1007.4
20240415200023 71 236 1.0 19.0 0.00 0.05 0.01 38 1007.2
20240415194512 70 254 3.0 17.0 0.00 0.05 0.01 39 1006.8
20240415193008 70 195 2.0 18.0 0.00 0.05 0.01 41 1006.7
20240415191504 70 221 0.0 12.0 0.00 0.05 0.01 43 1006.6
20240415190059 71 292 2.0 17.0 0.00 0.05 0.01 42 1006.7
20240415184555 70 263 1.0 13.0 0.00 0.05 0.01 41 1006.5
20240415183050 69 211 2.0 14.0 0.00 0.05 0.01 42 1006.7
20240415181545 68 254 0.0 14.0 0.00 0.05 0.01 44 1007.0
20240415180041 67 221 1.0 14.0 0.00 0.05 0.01 47 1007.0
20240415174537 67 164 0.0 7.0 0.00 0.05 0.01 49 1007.0
20240415173039 68 205 0.0 11.0 0.00 0.05 0.01 50 1007.0
20240415171527 67 202 1.0 13.0 0.00 0.05 0.01 50 1006.9
20240415170023 67 239 0.0 6.0 0.00 0.05 0.01 53 1006.8
20240415164522 67 204 0.0 3.0 0.00 0.05 0.01 55 1007.0
20240415163015 66 195 0.0 6.0 0.00 0.05 0.01 55 1007.3
20240415161509 65 200 0.0 1.0 0.00 0.05 0.01 56 1007.6
20240415160013 65 194 0.0 4.0 0.00 0.05 0.01 53 1007.6
20240415154601 64 203 0.0 4.0 0.00 0.05 0.01 56 1007.8
20240415153101 64 237 0.0 2.0 0.00 0.05 0.01 55 1008.0
20240415151555 62 245 0.0 1.0 0.00 0.05 0.01 53 1008.2
20240415150047 61 218 0.0 1.0 0.01 0.05 0.01 50 1008.3
20240415144543 61 250 0.0 1.0 0.01 0.05 0.01 52 1008.3
20240415143039 60 98 0.0 1.0 0.01 0.05 0.01 46 1008.4
20240415141534 60 221 0.0 0.0 0.01 0.05 0.01 42 1008.5
20240415140029 59 221 0.0 0.0 0.00 0.04 0.00 12 1008.5
20240415134526 57 215 0.0 0.0 0.00 0.04 0.00 19 1008.6
20240415133021 56 215 0.0 0.0 0.00 0.04 0.00 1 1008.4
20240415131516 55 215 0.0 0.0 0.00 0.04 0.00 1 1008.3
20240415130011 53 215 0.0 0.0 0.00 0.04 0.00 1 1008.1
20240415124511 51 213 0.0 0.0 0.00 0.04 0.00 1 1008.1
20240415123003 50 213 0.0 0.0 0.00 0.04 0.00 1 1008.0
20240415121600 48 211 0.0 1.0 0.00 0.04 0.00 1 1008.1
20240415120103 47 195 0.0 0.0 0.00 0.04 0.00 1 1007.7
20240415114604 45 195 0.0 0.0 0.00 0.04 0.00 1 1007.3
20240415113046 44 195 0.0 0.0 0.00 0.04 0.00 1 1007.5
20240415111544 43 195 0.0 0.0 0.00 0.04 0.00 1 1007.3
20240415110047 42 195 0.0 0.0 0.00 0.04 0.00 1 1007.1
20240415104532 42 195 0.0 0.0 0.00 0.04 0.00 1 1007.0
20240415103035 42 195 0.0 0.0 0.00 0.04 0.00 1 1006.8
20240415101525 42 195 0.0 0.0 0.00 0.04 0.00 1 1006.4
20240415100019 42 195 0.0 0.0 0.00 0.04 0.00 1 1006.1
20240415094515 43 195 0.0 0.0 0.00 0.04 0.00 1 1006.3